Year,Month,Day,Hour,Minute,Value (Times are PST for temperature in C)
2008,09,03,00,00,12.20
2008,09,03,00,01,12.20
2008,09,03,00,02,12.20
2008,09,03,00,03,12.20
2008,09,03,00,04,12.20
2008,09,03,00,05,12.20
2008,09,03,00,06,12.20
2008,09,03,00,07,12.20
2008,09,03,00,08,12.20
2008,09,03,00,09,12.20
2008,09,03,00,10,12.20
2008,09,03,00,11,12.20
2008,09,03,00,12,12.10
2008,09,03,00,13,12.10
2008,09,03,00,14,12.10
2008,09,03,00,15,12.10
2008,09,03,00,16,12.10
2008,09,03,00,17,12.10
2008,09,03,00,18,12.10
2008,09,03,00,19,12.10
2008,09,03,00,20,12.10
2008,09,03,00,21,12.10
2008,09,03,00,22,12.10
2008,09,03,00,23,12.00
2008,09,03,00,24,12.00
2008,09,03,00,25,12.00
2008,09,03,00,26,12.00
2008,09,03,00,27,12.00
2008,09,03,00,28,12.00
2008,09,03,00,29,11.90
2008,09,03,00,30,12.00
2008,09,03,00,31,11.90
2008,09,03,00,32,11.90
2008,09,03,00,33,11.90
2008,09,03,00,34,11.90
2008,09,03,00,35,11.90
2008,09,03,00,36,11.90
2008,09,03,00,37,11.90
2008,09,03,00,38,11.90
2008,09,03,00,39,11.90
2008,09,03,00,40,11.90
2008,09,03,00,41,11.90
2008,09,03,00,42,11.90
2008,09,03,00,43,11.90
2008,09,03,00,44,11.90
2008,09,03,00,45,11.90
2008,09,03,00,46,11.90
2008,09,03,00,47,11.80
2008,09,03,00,48,11.80
2008,09,03,00,49,11.80
2008,09,03,00,50,11.80
2008,09,03,00,51,11.80
2008,09,03,00,52,11.70
2008,09,03,00,53,11.70
2008,09,03,00,54,11.70
2008,09,03,00,55,11.70
2008,09,03,00,56,11.60
2008,09,03,00,57,11.60
2008,09,03,00,58,11.60
2008,09,03,00,59,11.60
2008,09,03,01,00,11.60
2008,09,03,01,01,11.60
2008,09,03,01,02,11.50
2008,09,03,01,03,11.50
2008,09,03,01,04,11.50
2008,09,03,01,05,11.50
2008,09,03,01,06,11.50
2008,09,03,01,07,11.50
2008,09,03,01,08,11.50
2008,09,03,01,09,11.50
2008,09,03,01,10,11.50
2008,09,03,01,11,11.40
2008,09,03,01,12,11.40
2008,09,03,01,13,11.40
2008,09,03,01,14,11.40
2008,09,03,01,15,11.40
2008,09,03,01,16,11.40
2008,09,03,01,17,11.30
2008,09,03,01,18,11.30
2008,09,03,01,19,11.30
2008,09,03,01,20,11.30
2008,09,03,01,21,11.30
2008,09,03,01,22,11.30
2008,09,03,01,23,11.30
2008,09,03,01,24,11.30
2008,09,03,01,25,11.30
2008,09,03,01,26,11.30
2008,09,03,01,27,11.20
2008,09,03,01,28,11.20
2008,09,03,01,29,11.20
2008,09,03,01,30,11.20
2008,09,03,01,31,11.20
2008,09,03,01,32,11.20
2008,09,03,01,33,11.20
2008,09,03,01,34,11.20
2008,09,03,01,35,11.20
2008,09,03,01,36,11.20
2008,09,03,01,37,11.20
2008,09,03,01,38,11.20
2008,09,03,01,39,11.20
2008,09,03,01,40,11.20
2008,09,03,01,41,11.20
2008,09,03,01,42,11.20
2008,09,03,01,43,11.20
2008,09,03,01,44,11.20
2008,09,03,01,45,11.20
2008,09,03,01,46,11.20
2008,09,03,01,47,11.20
2008,09,03,01,48,11.20
2008,09,03,01,49,11.20
2008,09,03,01,50,11.20
2008,09,03,01,51,11.20
2008,09,03,01,52,11.20
2008,09,03,01,53,11.20
2008,09,03,01,54,11.20
2008,09,03,01,55,11.30
2008,09,03,01,56,11.20
2008,09,03,01,57,11.20
2008,09,03,01,58,11.20
2008,09,03,01,59,11.20
2008,09,03,02,00,11.20
2008,09,03,02,01,11.20
2008,09,03,02,02,11.20
2008,09,03,02,03,11.20
2008,09,03,02,04,11.20
2008,09,03,02,05,11.20
2008,09,03,02,06,11.20
2008,09,03,02,07,11.20
2008,09,03,02,08,11.20
2008,09,03,02,09,11.10
2008,09,03,02,10,11.10
2008,09,03,02,11,11.10
2008,09,03,02,12,11.10
2008,09,03,02,13,11.10
2008,09,03,02,14,11.10
2008,09,03,02,15,11.10
2008,09,03,02,16,11.10
2008,09,03,02,17,11.00
2008,09,03,02,18,11.00
2008,09,03,02,19,11.00
2008,09,03,02,20,11.00
2008,09,03,02,21,11.00
2008,09,03,02,22,10.90
2008,09,03,02,23,10.90
2008,09,03,02,24,10.90
2008,09,03,02,25,10.90
2008,09,03,02,26,10.90
2008,09,03,02,27,10.90
2008,09,03,02,28,10.80
2008,09,03,02,29,10.80
2008,09,03,02,30,10.80
2008,09,03,02,31,10.80
2008,09,03,02,32,10.80
2008,09,03,02,33,10.80
2008,09,03,02,34,10.80
2008,09,03,02,35,10.80
2008,09,03,02,36,10.80
2008,09,03,02,37,10.70
2008,09,03,02,38,10.70
2008,09,03,02,39,10.70
2008,09,03,02,40,10.70
2008,09,03,02,41,10.60
2008,09,03,02,42,10.60
2008,09,03,02,43,10.60
2008,09,03,02,44,10.50
2008,09,03,02,45,10.50
2008,09,03,02,46,10.50
2008,09,03,02,47,10.40
2008,09,03,02,48,10.40
2008,09,03,02,49,10.40
2008,09,03,02,50,10.30
2008,09,03,02,51,10.30
2008,09,03,02,52,10.30
2008,09,03,02,53,10.30
2008,09,03,02,54,10.30
2008,09,03,02,55,10.30
2008,09,03,02,56,10.30
2008,09,03,02,57,10.30
2008,09,03,02,58,10.30
2008,09,03,02,59,10.30
2008,09,03,03,00,10.20
2008,09,03,03,01,10.20
2008,09,03,03,02,10.20
2008,09,03,03,03,10.20
2008,09,03,03,04,10.20
2008,09,03,03,05,10.20
2008,09,03,03,06,10.10
2008,09,03,03,07,10.10
2008,09,03,03,08,10.10
2008,09,03,03,09,10.10
2008,09,03,03,10,10.00
2008,09,03,03,11,10.00
2008,09,03,03,12,10.00
2008,09,03,03,13,9.90
2008,09,03,03,14,9.90
2008,09,03,03,15,9.90
2008,09,03,03,16,9.90
2008,09,03,03,17,9.90
2008,09,03,03,18,9.90
2008,09,03,03,19,9.90
2008,09,03,03,20,9.80
2008,09,03,03,21,9.80
2008,09,03,03,22,9.80
2008,09,03,03,23,9.80
2008,09,03,03,24,9.80
2008,09,03,03,25,9.80
2008,09,03,03,26,9.80
2008,09,03,03,27,9.80
2008,09,03,03,28,9.80
2008,09,03,03,29,9.70
2008,09,03,03,30,9.70
2008,09,03,03,31,9.70
2008,09,03,03,32,9.70
2008,09,03,03,33,9.70
2008,09,03,03,34,9.70
2008,09,03,03,35,9.60
2008,09,03,03,36,9.60
2008,09,03,03,37,9.60
2008,09,03,03,38,9.60
2008,09,03,03,39,9.60
2008,09,03,03,40,9.60
2008,09,03,03,41,9.60
2008,09,03,03,42,9.70
2008,09,03,03,43,9.70
2008,09,03,03,44,9.70
2008,09,03,03,45,9.70
2008,09,03,03,46,9.70
2008,09,03,03,47,9.70
2008,09,03,03,48,9.70
2008,09,03,03,49,9.70
2008,09,03,03,50,9.60
2008,09,03,03,51,9.60
2008,09,03,03,52,9.60
2008,09,03,03,53,9.60
2008,09,03,03,54,9.60
2008,09,03,03,55,9.60
2008,09,03,03,56,9.60
2008,09,03,03,57,9.60
2008,09,03,03,58,9.60
2008,09,03,03,59,9.50
2008,09,03,04,00,9.50
2008,09,03,04,01,9.50
2008,09,03,04,02,9.50
2008,09,03,04,03,9.50
2008,09,03,04,04,9.50
2008,09,03,04,05,9.50
2008,09,03,04,06,9.50
2008,09,03,04,07,9.50
2008,09,03,04,08,9.40
2008,09,03,04,09,9.40
2008,09,03,04,10,9.40
2008,09,03,04,11,9.40
2008,09,03,04,12,9.40
2008,09,03,04,13,9.30
2008,09,03,04,14,9.30
2008,09,03,04,15,9.20
2008,09,03,04,16,9.20
2008,09,03,04,17,9.10
2008,09,03,04,18,9.10
2008,09,03,04,19,9.10
2008,09,03,04,20,9.10
2008,09,03,04,21,9.10
2008,09,03,04,22,9.10
2008,09,03,04,23,9.10
2008,09,03,04,24,9.10
2008,09,03,04,25,9.10
2008,09,03,04,26,9.10
2008,09,03,04,27,9.10
2008,09,03,04,28,9.10
2008,09,03,04,29,9.10
2008,09,03,04,30,9.10
2008,09,03,04,31,9.10
2008,09,03,04,32,9.10
2008,09,03,04,33,9.00
2008,09,03,04,34,9.00
2008,09,03,04,35,9.00
2008,09,03,04,36,9.00
2008,09,03,04,37,8.90
2008,09,03,04,38,8.90
2008,09,03,04,39,8.90
2008,09,03,04,40,8.90
2008,09,03,04,41,8.90
2008,09,03,04,42,8.90
2008,09,03,04,43,8.90
2008,09,03,04,44,8.80
2008,09,03,04,45,8.80
2008,09,03,04,46,8.90
2008,09,03,04,47,8.90
2008,09,03,04,48,8.90
2008,09,03,04,49,8.90
2008,09,03,04,50,8.90
2008,09,03,04,51,8.90
2008,09,03,04,52,8.90
2008,09,03,04,53,8.90
2008,09,03,04,54,8.90
2008,09,03,04,55,8.90
2008,09,03,04,56,8.90
2008,09,03,04,57,8.90
2008,09,03,04,58,8.90
2008,09,03,04,59,8.90
2008,09,03,05,00,8.90
2008,09,03,05,01,8.90
2008,09,03,05,02,8.90
2008,09,03,05,03,8.90
2008,09,03,05,04,8.90
2008,09,03,05,05,8.90
2008,09,03,05,06,8.90
2008,09,03,05,07,8.90
2008,09,03,05,08,8.90
2008,09,03,05,09,8.90
2008,09,03,05,10,8.90
2008,09,03,05,11,9.00
2008,09,03,05,12,9.00
2008,09,03,05,13,9.00
2008,09,03,05,14,9.00
2008,09,03,05,15,9.00
2008,09,03,05,16,9.00
2008,09,03,05,17,9.00
2008,09,03,05,18,9.00
2008,09,03,05,19,9.10
2008,09,03,05,20,9.10
2008,09,03,05,21,9.10
2008,09,03,05,22,9.10
2008,09,03,05,23,9.10
2008,09,03,05,24,9.10
2008,09,03,05,25,9.10
2008,09,03,05,26,9.10
2008,09,03,05,27,9.10
2008,09,03,05,28,9.10
2008,09,03,05,29,9.10
2008,09,03,05,30,9.10
2008,09,03,05,31,9.20
2008,09,03,05,32,9.20
2008,09,03,05,33,9.20
2008,09,03,05,34,9.20
2008,09,03,05,35,9.20
2008,09,03,05,36,9.20
2008,09,03,05,37,9.20
2008,09,03,05,38,9.30
2008,09,03,05,39,9.30
2008,09,03,05,40,9.30
2008,09,03,05,41,9.30
2008,09,03,05,42,9.40
2008,09,03,05,43,9.40
2008,09,03,05,44,9.50
2008,09,03,05,45,9.50
2008,09,03,05,46,9.60
2008,09,03,05,47,9.60
2008,09,03,05,48,9.70
2008,09,03,05,49,9.70
2008,09,03,05,50,9.80
2008,09,03,05,51,9.80
2008,09,03,05,52,9.80
2008,09,03,05,53,9.80
2008,09,03,05,54,9.80
2008,09,03,05,55,9.90
2008,09,03,05,56,9.90
2008,09,03,05,57,9.90
2008,09,03,05,58,9.90
2008,09,03,05,59,10.00
2008,09,03,06,00,10.00
2008,09,03,06,01,10.10
2008,09,03,06,02,10.10
2008,09,03,06,03,10.10
2008,09,03,06,04,10.10
2008,09,03,06,05,10.10
2008,09,03,06,06,10.10
2008,09,03,06,07,10.20
2008,09,03,06,08,10.20
2008,09,03,06,09,10.20
2008,09,03,06,10,10.20
2008,09,03,06,11,10.20
2008,09,03,06,12,10.20
2008,09,03,06,13,10.20
2008,09,03,06,14,10.20
2008,09,03,06,15,10.20
2008,09,03,06,16,10.20
2008,09,03,06,17,10.20
2008,09,03,06,18,10.20
2008,09,03,06,19,10.20
2008,09,03,06,20,10.20
2008,09,03,06,21,10.20
2008,09,03,06,22,10.20
2008,09,03,06,23,10.20
2008,09,03,06,24,10.30
2008,09,03,06,25,10.30
2008,09,03,06,26,10.30
2008,09,03,06,27,10.30
2008,09,03,06,28,10.30
2008,09,03,06,29,10.30
2008,09,03,06,30,10.30
2008,09,03,06,31,10.30
2008,09,03,06,32,10.30
2008,09,03,06,33,10.30
2008,09,03,06,34,10.30
2008,09,03,06,35,10.30
2008,09,03,06,36,10.30
2008,09,03,06,37,10.30
2008,09,03,06,38,10.30
2008,09,03,06,39,10.30
2008,09,03,06,40,10.30
2008,09,03,06,41,10.30
2008,09,03,06,42,10.30
2008,09,03,06,43,10.30
2008,09,03,06,44,10.30
2008,09,03,06,45,10.30
2008,09,03,06,46,10.30
2008,09,03,06,47,10.30
2008,09,03,06,48,10.30
2008,09,03,06,49,10.30
2008,09,03,06,50,10.30
2008,09,03,06,51,10.30
2008,09,03,06,52,10.30
2008,09,03,06,53,10.30
2008,09,03,06,54,10.20
2008,09,03,06,55,10.20
2008,09,03,06,56,10.20
2008,09,03,06,57,10.20
2008,09,03,06,58,10.20
2008,09,03,06,59,10.20
2008,09,03,07,00,10.20
2008,09,03,07,01,10.20
2008,09,03,07,02,10.20
2008,09,03,07,03,10.20
2008,09,03,07,04,10.20
2008,09,03,07,05,10.20
2008,09,03,07,06,10.20
2008,09,03,07,07,10.20
2008,09,03,07,08,10.20
2008,09,03,07,09,10.20
2008,09,03,07,10,10.20
2008,09,03,07,11,10.20
2008,09,03,07,12,10.20
2008,09,03,07,13,10.20
2008,09,03,07,14,10.20
2008,09,03,07,15,10.30
2008,09,03,07,16,10.30
2008,09,03,07,17,10.30
2008,09,03,07,18,10.30
2008,09,03,07,19,10.30
2008,09,03,07,20,10.30
2008,09,03,07,21,10.30
2008,09,03,07,22,10.40
2008,09,03,07,23,10.40
2008,09,03,07,24,10.40
2008,09,03,07,25,10.40
2008,09,03,07,26,10.40
2008,09,03,07,27,10.40
2008,09,03,07,28,10.40
2008,09,03,07,29,10.40
2008,09,03,07,30,10.50
2008,09,03,07,31,10.50
2008,09,03,07,32,10.50
2008,09,03,07,33,10.50
2008,09,03,07,34,10.50
2008,09,03,07,35,10.50
2008,09,03,07,36,10.50
2008,09,03,07,37,10.60
2008,09,03,07,38,10.60
2008,09,03,07,39,10.60
2008,09,03,07,40,10.60
2008,09,03,07,41,10.60
2008,09,03,07,42,10.60
2008,09,03,07,43,10.60
2008,09,03,07,44,10.70
2008,09,03,07,45,10.70
2008,09,03,07,46,10.70
2008,09,03,07,47,10.70
2008,09,03,07,48,10.70
2008,09,03,07,49,10.70
2008,09,03,07,50,10.70
2008,09,03,07,51,10.70
2008,09,03,07,52,10.70
2008,09,03,07,53,10.70
2008,09,03,07,54,10.70
2008,09,03,07,55,10.80
2008,09,03,07,56,10.80
2008,09,03,07,57,10.80
2008,09,03,07,58,10.80
2008,09,03,07,59,10.80
2008,09,03,08,00,10.80
2008,09,03,08,01,10.80
2008,09,03,08,02,10.80
2008,09,03,08,03,10.90
2008,09,03,08,04,10.90
2008,09,03,08,05,10.90
2008,09,03,08,06,10.90
2008,09,03,08,07,10.90
2008,09,03,08,08,10.90
2008,09,03,08,09,11.00
2008,09,03,08,10,11.00
2008,09,03,08,11,11.00
2008,09,03,08,12,11.00
2008,09,03,08,13,11.10
2008,09,03,08,14,11.10
2008,09,03,08,15,11.10
2008,09,03,08,16,11.10
2008,09,03,08,17,11.10
2008,09,03,08,18,11.10
2008,09,03,08,19,11.10
2008,09,03,08,20,11.10
2008,09,03,08,21,11.10
2008,09,03,08,22,11.10
2008,09,03,08,23,11.20
2008,09,03,08,24,11.20
2008,09,03,08,25,11.20
2008,09,03,08,26,11.20
2008,09,03,08,27,11.20
2008,09,03,08,28,11.20
2008,09,03,08,29,11.20
2008,09,03,08,30,11.30
2008,09,03,08,31,11.30
2008,09,03,08,32,11.30
2008,09,03,08,33,11.30
2008,09,03,08,34,11.30
2008,09,03,08,35,11.30
2008,09,03,08,36,11.40
2008,09,03,08,37,11.40
2008,09,03,08,38,11.40
2008,09,03,08,39,11.40
2008,09,03,08,40,11.50
2008,09,03,08,41,11.50
2008,09,03,08,42,11.50
2008,09,03,08,43,11.60
2008,09,03,08,44,11.60
2008,09,03,08,45,11.70
2008,09,03,08,46,11.70
2008,09,03,08,47,11.80
2008,09,03,08,48,11.80
2008,09,03,08,49,11.90
2008,09,03,08,50,12.00
2008,09,03,08,51,12.00
2008,09,03,08,52,12.10
2008,09,03,08,53,12.20
2008,09,03,08,54,12.20
2008,09,03,08,55,12.30
